User: anonymous   Login
Location: Unspecified
(0.0000°N, 0.0000°E)
Time: 17:03:21
(UTC+00:00)
Language:

CBERS-1 - Orbit

View from above orbital plane
View from above orbital plane
View from above satellite
View from above satellite

Ground track
Ground track

The orbit data is extracted from the following two-line orbital elements,

1 25940U 99057A   17264.89839304 -.00000005  00000-0  13393-4 0  9993
2 25940  98.4964 203.2561 0006266  77.0136 283.1749 14.35399835939707
Epoch (UTC): 21 September 2017 21:33:41
Eccentricity: 0.0006266
inclination: 98.4964°
perigee height: 769 km
apogee height: 778 km
right ascension of ascending node: 203.2561°
argument of perigee: 77.0136°
revolutions per day: 14.35399835
mean anomaly at epoch: 283.1749°
orbit number at epoch: 93970

The dashed part of the orbit path shows where the satellite is in the earth's shadow,  

DLR